Time,TemperatureF,DewpointF,PressureIn,WindDirection,WindDirectionDegrees,WindSpeedMPH,WindSpeedGustMPH,Humidity,HourlyPrecipIn,Conditions,Clouds,dailyrainin,SoftwareType,DateUTC
2013-03-20 00:03:00,32.0,30.0,29.77,West,267,0.0,0.0,93,0.00,,,0.83,,2013-03-20 04:03:00,
2013-03-20 00:12:00,32.0,30.0,29.77,West,267,0.0,0.0,93,0.00,,,0.83,,2013-03-20 04:12:00,
2013-03-20 00:23:00,32.0,30.0,29.76,NW,308,3.0,0.0,93,0.00,,,0.83,,2013-03-20 04:23:00,
2013-03-20 00:32:00,32.0,30.0,29.77,WNW,292,0.0,0.0,92,0.00,,,0.83,,2013-03-20 04:32:00,
2013-03-20 00:43:00,32.0,30.0,29.77,WNW,292,0.0,0.0,92,0.00,,,0.83,,2013-03-20 04:43:00,
2013-03-20 00:53:00,32.0,30.0,29.77,NW,312,1.0,0.0,92,0.00,,,0.83,,2013-03-20 04:53:00,
2013-03-20 01:03:00,32.0,30.0,29.77,NW,316,0.0,0.0,92,0.00,,,0.83,,2013-03-20 05:03:00,
2013-03-20 01:12:00,32.0,30.0,29.78,WNW,299,3.0,0.0,92,0.00,,,0.83,,2013-03-20 05:12:00,
2013-03-20 01:23:00,32.0,30.0,29.78,WNW,299,3.0,0.0,92,0.00,,,0.83,,2013-03-20 05:23:00,
2013-03-20 01:32:00,32.0,30.0,29.80,West,272,0.0,0.0,92,0.00,,,0.83,,2013-03-20 05:32:00,
2013-03-20 01:42:00,32.0,30.0,29.80,West,272,0.0,0.0,92,0.00,,,0.83,,2013-03-20 05:42:00,
2013-03-20 01:52:00,32.0,30.0,29.81,West,267,0.0,0.0,92,0.00,,,0.83,,2013-03-20 05:52:00,
2013-03-20 02:03:00,32.0,30.0,29.82,WNW,289,0.0,0.0,92,0.00,,,0.83,,2013-03-20 06:03:00,
2013-03-20 02:12:00,32.0,30.0,29.82,WNW,289,0.0,0.0,92,0.00,,,0.83,,2013-03-20 06:12:00,
2013-03-20 02:22:00,32.0,27.0,29.82,WNW,293,3.0,0.0,82,0.00,,,0.83,,2013-03-20 06:22:00,
2013-03-20 02:32:00,32.0,26.0,29.82,WNW,293,0.0,9.0,79,0.00,,,0.83,,2013-03-20 06:32:00,
2013-03-20 02:42:00,32.0,26.0,29.82,WNW,293,0.0,9.0,79,0.00,,,0.83,,2013-03-20 06:42:00,
2013-03-20 02:52:00,32.0,26.0,29.82,WNW,293,0.0,9.0,79,0.00,,,0.83,,2013-03-20 06:52:00,
2013-03-20 03:02:00,32.0,26.0,29.83,WNW,292,2.0,9.0,77,0.00,,,0.83,,2013-03-20 07:02:00,
2013-03-20 03:12:00,32.0,26.0,29.83,WNW,292,2.0,9.0,77,0.00,,,0.83,,2013-03-20 07:12:00,
2013-03-20 03:22:00,32.0,26.0,29.83,WNW,292,2.0,9.0,77,0.00,,,0.83,,2013-03-20 07:22:00,
2013-03-20 03:32:00,31.0,25.0,29.83,WNW,289,0.0,3.0,77,0.00,,,0.83,,2013-03-20 07:32:00,
2013-03-20 03:42:00,31.0,25.0,29.83,WNW,289,0.0,3.0,77,0.00,,,0.83,,2013-03-20 07:42:00,
2013-03-20 03:52:00,31.0,25.0,29.84,WNW,285,0.0,3.0,77,0.00,,,0.83,,2013-03-20 07:52:00,
2013-03-20 04:02:00,31.0,24.0,29.84,WNW,301,0.0,3.0,76,0.00,,,0.83,,2013-03-20 08:02:00,
2013-03-20 04:12:00,31.0,24.0,29.84,WNW,301,0.0,3.0,76,0.00,,,0.83,,2013-03-20 08:12:00,
2013-03-20 04:22:00,31.0,24.0,29.84,WNW,287,0.0,3.0,76,0.00,,,0.83,,2013-03-20 08:22:00,
2013-03-20 04:32:00,30.0,24.0,29.84,WNW,287,0.0,0.0,77,0.00,,,0.83,,2013-03-20 08:32:00,
2013-03-20 04:42:00,30.0,24.0,29.84,WNW,287,0.0,0.0,77,0.00,,,0.83,,2013-03-20 08:42:00,
2013-03-20 04:52:00,30.0,24.0,29.84,West,269,0.0,0.0,77,0.00,,,0.83,,2013-03-20 08:52:00,
2013-03-20 05:02:00,30.0,24.0,29.85,WNW,293,7.0,0.0,77,0.00,,,0.83,,2013-03-20 09:02:00,
2013-03-20 05:12:00,30.0,24.0,29.85,WNW,293,7.0,0.0,77,0.00,,,0.83,,2013-03-20 09:12:00,
2013-03-20 05:22:00,30.0,23.0,29.85,WSW,247,3.0,0.0,76,0.00,,,0.83,,2013-03-20 09:22:00,
2013-03-20 05:33:00,30.0,23.0,29.85,WSW,247,3.0,0.0,76,0.00,,,0.83,,2013-03-20 09:33:00,
2013-03-20 05:43:00,30.0,23.0,29.85,WSW,247,3.0,0.0,76,0.00,,,0.83,,2013-03-20 09:43:00,
2013-03-20 05:52:00,30.0,24.0,29.86,SW,235,8.0,8.0,78,0.00,,,0.83,,2013-03-20 09:52:00,
2013-03-20 05:53:00,30.0,24.0,29.86,WSW,245,0.0,7.0,78,0.00,,,0.83,,2013-03-20 09:53:00,
2013-03-20 06:03:00,30.0,24.0,29.86,WSW,245,0.0,7.0,78,0.00,,,0.83,,2013-03-20 10:03:00,
2013-03-20 06:13:00,30.0,24.0,29.86,WSW,245,0.0,7.0,78,0.00,,,0.83,,2013-03-20 10:13:00,
2013-03-20 06:23:00,30.0,24.0,29.86,SW,235,8.0,8.0,78,0.00,,,0.83,,2013-03-20 10:23:00,
2013-03-20 06:33:00,30.0,24.0,29.86,SW,235,8.0,8.0,78,0.00,,,0.83,,2013-03-20 10:33:00,
2013-03-20 06:43:00,30.0,24.0,29.86,SW,235,8.0,8.0,78,0.00,,,0.83,,2013-03-20 10:43:00,
2013-03-20 07:03:00,30.0,22.0,29.86,WSW,255,2.0,10.0,73,0.00,,,0.83,,2013-03-20 11:03:00,
2013-03-20 07:12:00,30.0,22.0,29.86,WSW,255,2.0,10.0,73,0.00,,,0.83,,2013-03-20 11:12:00,
2013-03-20 07:22:00,30.0,22.0,29.87,West,269,3.0,10.0,72,0.00,,,0.83,,2013-03-20 11:22:00,
2013-03-20 07:32:00,30.0,22.0,29.87,WNW,292,0.0,5.0,71,0.00,,,0.83,,2013-03-20 11:32:00,
2013-03-20 07:42:00,30.0,22.0,29.87,WNW,292,0.0,5.0,71,0.00,,,0.83,,2013-03-20 11:42:00,
2013-03-20 07:52:00,30.0,22.0,29.87,West,261,5.0,5.0,71,0.00,,,0.83,,2013-03-20 11:52:00,
2013-03-20 08:02:00,31.0,22.0,29.87,WSW,256,2.0,5.0,69,0.00,,,0.83,,2013-03-20 12:02:00,
2013-03-20 08:12:00,31.0,22.0,29.87,WSW,256,2.0,5.0,69,0.00,,,0.83,,2013-03-20 12:12:00,
2013-03-20 08:22:00,31.0,22.0,29.87,WSW,253,3.0,5.0,68,0.00,,,0.83,,2013-03-20 12:22:00,
2013-03-20 08:32:00,31.0,21.0,29.87,WSW,251,13.0,13.0,66,0.00,,,0.83,,2013-03-20 12:32:00,
2013-03-20 08:42:00,31.0,21.0,29.87,WSW,251,13.0,13.0,66,0.00,,,0.83,,2013-03-20 12:42:00,
2013-03-20 08:52:00,32.0,22.0,29.88,West,269,5.0,11.0,67,0.00,,,0.83,,2013-03-20 12:52:00,
2013-03-20 09:03:00,32.0,22.0,29.88,West,269,5.0,11.0,67,0.00,,,0.83,,2013-03-20 13:03:00,
2013-03-20 09:12:00,32.0,22.0,29.88,West,269,5.0,11.0,67,0.00,,,0.83,,2013-03-20 13:12:00,
2013-03-20 09:22:00,33.0,22.0,29.87,West,276,5.0,11.0,64,0.00,,,0.83,,2013-03-20 13:22:00,
2013-03-20 09:32:00,34.0,23.0,29.87,WSW,241,12.0,13.0,63,0.00,,,0.83,,2013-03-20 13:32:00,
2013-03-20 09:42:00,34.0,23.0,29.87,WSW,241,12.0,13.0,63,0.00,,,0.83,,2013-03-20 13:42:00,
2013-03-20 09:52:00,34.0,23.0,29.87,WSW,241,12.0,13.0,63,0.00,,,0.83,,2013-03-20 13:52:00,
2013-03-20 10:03:00,34.0,22.0,29.86,WNW,291,5.0,13.0,60,0.00,,,0.83,,2013-03-20 14:03:00,
2013-03-20 10:12:00,34.0,22.0,29.86,WNW,291,5.0,13.0,60,0.00,,,0.83,,2013-03-20 14:12:00,
2013-03-20 10:34:00,35.0,21.0,29.86,SSW,212,14.0,14.0,57,0.00,,,0.83,,2013-03-20 14:34:00,
2013-03-20 10:42:00,35.0,21.0,29.86,SSW,212,14.0,14.0,57,0.00,,,0.83,,2013-03-20 14:42:00,
2013-03-20 10:52:00,35.0,20.0,29.86,West,278,8.0,14.0,53,0.00,,,0.83,,2013-03-20 14:52:00,
2013-03-20 11:03:00,35.0,20.0,29.86,West,278,8.0,14.0,53,0.00,,,0.83,,2013-03-20 15:03:00,
2013-03-20 11:12:00,35.0,20.0,29.86,WNW,303,11.0,14.0,55,0.00,,,0.83,,2013-03-20 15:12:00,
2013-03-20 11:22:00,35.0,20.0,29.86,WNW,303,11.0,14.0,55,0.00,,,0.83,,2013-03-20 15:22:00,
2013-03-20 11:33:00,36.0,19.0,29.86,West,269,11.0,15.0,50,0.00,,,0.83,,2013-03-20 15:33:00,
2013-03-20 11:43:00,36.0,19.0,29.86,West,269,11.0,15.0,50,0.00,,,0.83,,2013-03-20 15:43:00,
2013-03-20 11:52:00,36.0,19.0,29.86,West,269,11.0,15.0,50,0.00,,,0.83,,2013-03-20 15:52:00,
2013-03-20 12:03:00,37.0,20.0,29.86,West,261,5.0,15.0,50,0.00,,,0.83,,2013-03-20 16:03:00,
2013-03-20 12:12:00,37.0,20.0,29.86,West,261,5.0,15.0,50,0.00,,,0.83,,2013-03-20 16:12:00,
2013-03-20 12:23:00,38.0,21.0,29.86,WSW,256,4.0,15.0,49,0.00,,,0.83,,2013-03-20 16:23:00,
2013-03-20 12:33:00,37.0,20.0,29.86,WNW,291,3.0,13.0,50,0.00,,,0.83,,2013-03-20 16:33:00,
2013-03-20 12:43:00,37.0,20.0,29.86,WNW,291,3.0,13.0,50,0.00,,,0.83,,2013-03-20 16:43:00,
2013-03-20 12:52:00,38.0,21.0,29.86,NW,306,5.0,13.0,49,0.00,,,0.83,,2013-03-20 16:52:00,
2013-03-20 13:03:00,40.0,22.0,29.85,WNW,283,4.0,13.0,48,0.00,,,0.83,,2013-03-20 17:03:00,
2013-03-20 13:12:00,40.0,22.0,29.85,WNW,283,4.0,13.0,48,0.00,,,0.83,,2013-03-20 17:12:00,
2013-03-20 13:22:00,40.0,21.0,29.85,West,265,9.0,13.0,47,0.00,,,0.83,,2013-03-20 17:22:00,
2013-03-20 13:32:00,40.0,21.0,29.85,NW,322,6.0,12.0,46,0.00,,,0.83,,2013-03-20 17:32:00,
2013-03-20 13:42:00,40.0,21.0,29.85,NW,322,6.0,12.0,46,0.00,,,0.83,,2013-03-20 17:42:00,
2013-03-20 13:53:00,40.0,21.0,29.84,WSW,253,7.0,12.0,47,0.00,,,0.83,,2013-03-20 17:53:00,
2013-03-20 14:02:00,40.0,20.0,29.84,WNW,293,9.0,12.0,44,0.00,,,0.83,,2013-03-20 18:02:00,
2013-03-20 14:12:00,40.0,20.0,29.84,WNW,293,9.0,12.0,44,0.00,,,0.83,,2013-03-20 18:12:00,
2013-03-20 14:22:00,41.0,22.0,29.83,SW,233,7.0,12.0,46,0.00,,,0.83,,2013-03-20 18:22:00,
2013-03-20 14:33:00,41.0,22.0,29.83,SW,233,7.0,12.0,46,0.00,,,0.83,,2013-03-20 18:33:00,
2013-03-20 14:42:00,41.0,22.0,29.83,SW,233,7.0,12.0,46,0.00,,,0.83,,2013-03-20 18:42:00,
2013-03-20 14:52:00,41.0,20.0,29.83,WNW,291,8.0,9.0,42,0.00,,,0.83,,2013-03-20 18:52:00,
2013-03-20 15:02:00,41.0,26.0,29.83,West,281,0.0,9.0,54,0.00,,,0.83,,2013-03-20 19:02:00,
2013-03-20 15:12:00,41.0,26.0,29.83,West,281,0.0,9.0,54,0.00,,,0.83,,2013-03-20 19:12:00,
2013-03-20 15:22:00,41.0,26.0,29.83,West,281,0.0,9.0,54,0.00,,,0.83,,2013-03-20 19:22:00,
2013-03-20 15:32:00,41.0,26.0,29.83,West,281,0.0,9.0,54,0.00,,,0.83,,2013-03-20 19:32:00,
2013-03-20 15:42:00,41.0,26.0,29.83,West,281,0.0,9.0,54,0.00,,,0.83,,2013-03-20 19:42:00,
2013-03-20 15:53:00,39.0,24.0,29.83,WSW,237,19.0,19.0,55,0.00,,,0.83,,2013-03-20 19:53:00,
2013-03-20 16:02:00,39.0,24.0,29.83,WNW,288,12.0,14.0,54,0.00,,,0.83,,2013-03-20 20:02:00,
2013-03-20 16:13:00,39.0,24.0,29.83,WNW,288,12.0,14.0,54,0.00,,,0.83,,2013-03-20 20:13:00,
2013-03-20 16:22:00,40.0,25.0,29.83,SW,230,13.0,14.0,55,0.00,,,0.83,,2013-03-20 20:22:00,
2013-03-20 16:32:00,40.0,24.0,29.83,West,274,8.0,16.0,52,0.00,,,0.83,,2013-03-20 20:32:00,
2013-03-20 16:42:00,40.0,24.0,29.83,West,274,8.0,16.0,52,0.00,,,0.83,,2013-03-20 20:42:00,
2013-03-20 16:52:00,40.0,24.0,29.83,WSW,256,23.0,23.0,52,0.00,,,0.83,,2013-03-20 20:52:00,
2013-03-20 17:02:00,39.0,23.0,29.83,West,261,8.0,16.0,52,0.00,,,0.83,,2013-03-20 21:02:00,
2013-03-20 17:12:00,39.0,23.0,29.83,West,261,8.0,16.0,52,0.00,,,0.83,,2013-03-20 21:12:00,
2013-03-20 17:22:00,39.0,23.0,29.83,West,262,13.0,16.0,52,0.00,,,0.83,,2013-03-20 21:22:00,
2013-03-20 17:33:00,39.0,23.0,29.83,West,262,13.0,16.0,52,0.00,,,0.83,,2013-03-20 21:33:00,
2013-03-20 17:42:00,39.0,23.0,29.83,West,262,13.0,16.0,52,0.00,,,0.83,,2013-03-20 21:42:00,
2013-03-20 17:52:00,40.0,26.0,29.85,WSW,239,5.0,19.0,57,0.00,,,0.83,,2013-03-20 21:52:00,
2013-03-20 18:03:00,40.0,22.0,29.84,West,272,6.0,19.0,48,0.00,,,0.83,,2013-03-20 22:03:00,
2013-03-20 18:13:00,40.0,22.0,29.84,West,272,6.0,19.0,48,0.00,,,0.83,,2013-03-20 22:13:00,
2013-03-20 18:23:00,40.0,20.0,29.84,WSW,242,4.0,19.0,45,0.00,,,0.83,,2013-03-20 22:23:00,
2013-03-20 18:33:00,40.0,21.0,29.84,WSW,257,10.0,10.0,46,0.00,,,0.83,,2013-03-20 22:33:00,
2013-03-20 18:42:00,40.0,21.0,29.84,WSW,257,10.0,10.0,46,0.00,,,0.83,,2013-03-20 22:42:00,
2013-03-20 18:53:00,40.0,21.0,29.84,WSW,257,10.0,10.0,46,0.00,,,0.83,,2013-03-20 22:53:00,
2013-03-20 19:02:00,39.0,20.0,29.85,WSW,256,1.0,9.0,47,0.00,,,0.83,,2013-03-20 23:02:00,
2013-03-20 19:12:00,39.0,20.0,29.85,WSW,256,1.0,9.0,47,0.00,,,0.83,,2013-03-20 23:12:00,
2013-03-20 19:23:00,38.0,21.0,29.86,WSW,245,0.0,9.0,49,0.00,,,0.83,,2013-03-20 23:23:00,
2013-03-20 19:32:00,38.0,21.0,29.86,WSW,243,0.0,2.0,49,0.00,,,0.83,,2013-03-20 23:32:00,
2013-03-20 19:43:00,38.0,21.0,29.86,WSW,243,0.0,2.0,49,0.00,,,0.83,,2013-03-20 23:43:00,
2013-03-20 19:53:00,37.0,23.0,29.86,WSW,243,0.0,2.0,57,0.00,,,0.83,,2013-03-20 23:53:00,
2013-03-20 20:02:00,37.0,26.0,29.86,WSW,242,0.0,2.0,64,0.00,,,0.83,,2013-03-21 00:02:00,
2013-03-20 20:12:00,37.0,26.0,29.86,WSW,242,0.0,2.0,64,0.00,,,0.83,,2013-03-21 00:12:00,
2013-03-20 20:23:00,37.0,26.0,29.86,WSW,242,0.0,2.0,64,0.00,,,0.83,,2013-03-21 00:23:00,
2013-03-20 20:33:00,36.0,28.0,29.87,WSW,243,0.0,0.0,73,0.00,,,0.83,,2013-03-21 00:33:00,
2013-03-20 20:42:00,36.0,28.0,29.87,WSW,243,0.0,0.0,73,0.00,,,0.83,,2013-03-21 00:42:00,
2013-03-20 20:53:00,36.0,28.0,29.86,WSW,242,0.0,0.0,73,0.00,,,0.83,,2013-03-21 00:53:00,
2013-03-20 21:02:00,35.0,28.0,29.86,WSW,242,0.0,0.0,75,0.00,,,0.83,,2013-03-21 01:02:00,
2013-03-20 21:12:00,35.0,28.0,29.86,WSW,242,0.0,0.0,75,0.00,,,0.83,,2013-03-21 01:12:00,
2013-03-20 21:22:00,35.0,29.0,29.87,WSW,242,0.0,0.0,78,0.00,,,0.83,,2013-03-21 01:22:00,
2013-03-20 21:33:00,35.0,28.0,29.87,WSW,241,0.0,0.0,76,0.00,,,0.83,,2013-03-21 01:33:00,
2013-03-20 21:42:00,35.0,28.0,29.87,WSW,241,0.0,0.0,76,0.00,,,0.83,,2013-03-21 01:42:00,
2013-03-20 21:53:00,36.0,29.0,29.88,WSW,241,0.0,0.0,74,0.00,,,0.83,,2013-03-21 01:53:00,
2013-03-20 22:02:00,36.0,28.0,29.87,WSW,241,0.0,0.0,73,0.00,,,0.83,,2013-03-21 02:02:00,
2013-03-20 22:12:00,36.0,28.0,29.87,WSW,241,0.0,0.0,73,0.00,,,0.83,,2013-03-21 02:12:00,
2013-03-20 22:22:00,36.0,27.0,29.88,WSW,241,0.0,0.0,70,0.00,,,0.83,,2013-03-21 02:22:00,
2013-03-20 22:33:00,35.0,28.0,29.88,WSW,241,0.0,2.0,74,0.00,,,0.83,,2013-03-21 02:33:00,
2013-03-20 22:42:00,35.0,28.0,29.88,WSW,241,0.0,2.0,74,0.00,,,0.83,,2013-03-21 02:42:00,
2013-03-20 22:52:00,35.0,28.0,29.88,WSW,241,0.0,2.0,74,0.00,,,0.83,,2013-03-21 02:52:00,
2013-03-20 23:02:00,35.0,28.0,29.88,WSW,241,0.0,2.0,76,0.00,,,0.83,,2013-03-21 03:02:00,
2013-03-20 23:12:00,35.0,28.0,29.88,WSW,241,0.0,2.0,76,0.00,,,0.83,,2013-03-21 03:12:00,
2013-03-20 23:22:00,35.0,28.0,29.87,WSW,241,0.0,2.0,76,0.00,,,0.83,,2013-03-21 03:22:00,
2013-03-20 23:33:00,35.0,29.0,29.87,WSW,241,0.0,0.0,77,0.00,,,0.00,,2013-03-21 03:33:00,
2013-03-20 23:43:00,35.0,29.0,29.87,WSW,241,0.0,0.0,77,0.00,,,0.00,,2013-03-21 03:43:00,
2013-03-20 23:53:00,34.0,28.0,29.87,WSW,241,0.0,0.0,79,0.00,,,0.00,,2013-03-21 03:53:00,